Home   Weather   Ontario   Past weeks
Flag for USA

Past Weather in Ontario, California, USA — Yesterday and Last 2 Weeks

Now
66 °F

Passing clouds.


Feels Like: 66 °F
Forecast: 88 / 63 °F
Wind: No wind

Location: Ontario International Airport

Current Time: Jul 18, 2019 at 6:35:51 am

Latest Report: Jul 18, 2019 at 5:53 am


Visibility: 7 mi

Pressure: 29.93 "Hg

Humidity: 90%

Dew Point: 63 °F

Location of OntarioLocation

Past Weather in Ontario — Graph

°F

Ontario Temperature Yesterday

Maximum temperature yesterday: 93 °F (at 12:53 pm)
Minimum temperature yesterday: 67 °F (at 4:53 am)
Average temperature yesterday: 78 °F

High & Low Weather Summary for the Past Weeks

 TemperatureHumidityPressure
High101 °F (Jul 12, 2:53 pm)94% (Jul 3, 6:53 am)30.04 "Hg (Jul 3, 6:53 am)
Low64 °F (Jul 5, 4:01 am)19% (Jul 14, 2:53 pm)29.71 "Hg (Jul 12, 5:53 pm)
Average78 °F60%29.89 "Hg
* Reported Jul 3 4:53 am — Jul 18 4:53 am, Ontario. Weather by CustomWeather, © 2019

Note: Actual official high and low records may vary slightly from our data, if they occured in-between our weather recording intervals... More about our weather records

Advertising

Ontario Weather History for the Previous 24 Hours

Scroll right to see more
 ConditionsComfort  
Time TempWeatherWind HumidityBarometerVisibility
4:53 am
Thu, Jul 18
67 °FClear.No wind87%29.92 "Hg8 mi
3:53 am67 °FClear.3 mph87%29.92 "Hg9 mi
2:53 am67 °FClear.No wind87%29.92 "Hg9 mi
1:53 am68 °FPassing clouds.7 mph84%29.93 "Hg10 mi
12:53 am69 °FPassing clouds.5 mph81%29.93 "Hg10 mi
11:53 pm
Wed, Jul 17
70 °FPassing clouds.9 mph81%29.92 "Hg10 mi
10:53 pm71 °FPassing clouds.9 mph78%29.92 "Hg10 mi
9:53 pm72 °FPassing clouds.9 mph76%29.91 "Hg10 mi
8:53 pm74 °FPassing clouds.9 mph71%29.90 "Hg10 mi
7:53 pm78 °FPassing clouds.14 mph62%29.88 "Hg10 mi
6:53 pm83 °FPassing clouds.14 mph50%29.86 "Hg10 mi
5:53 pm87 °FSunny.20 mph42%29.85 "Hg10 mi
4:53 pm89 °FSunny.20 mph39%29.86 "Hg10 mi
3:53 pm91 °FSunny.20 mph38%29.86 "Hg10 mi
2:53 pm92 °FSunny.16 mph37%29.87 "Hg10 mi
1:53 pm93 °FSunny.13 mph32%29.87 "Hg10 mi
12:53 pm93 °FSunny.6 mph31%29.87 "Hg10 mi
11:53 am89 °FSunny.5 mph34%29.89 "Hg10 mi
10:53 am84 °FSunny.5 mph46%29.90 "Hg8 mi
9:53 am79 °FSunny.3 mph58%29.90 "Hg6 mi
8:53 am74 °FSunny.3 mph76%29.90 "Hg5 mi
7:53 am71 °FSunny.No wind84%29.88 "Hg5 mi
6:53 am69 °FFog.No wind90%29.86 "Hg5 mi
Weather by CustomWeather, © 2019

See weather overview